Location: Unspecified
(64.3176°N, 0.0000°E)
Time: 11:21:31
(UTC+00:00)

NOAA 16 DEB - Visible Passes

Search period start: 04 April 2026 00:00
Search period end: 14 April 2026 00:00
Orbit: 687 x 732 km, 99.0° (Epoch: 28 March)

Date Brightness Start Highest point End Pass type
(mag) Time Alt. Az. Time Alt. Az. Time Alt. Az.
4 Apr ? 01:24:18 10° NNE 01:26:17 12° N 01:28:15 10° NNW visible
4 Apr ? 02:59:09 10° ENE 03:02:33 19° NNE 03:05:56 10° NNW visible
4 Apr ? 21:16:29 10° NNE 21:21:06 42° NW 21:25:40 10° WSW visible
4 Apr ? 22:54:36 10° NNE 22:57:55 18° NNW 23:01:13 10° WNW visible
5 Apr ? 00:32:13 10° NNE 00:34:09 12° N 00:36:06 10° NNW visible
5 Apr ? 02:07:44 10° NE 02:10:16 14° NNE 02:12:48 10° NNW visible
5 Apr ? 03:42:42 10° E 03:46:45 26° NE 03:50:49 10° NNW visible
5 Apr ? 20:23:15 10° NNE 20:28:11 77° WNW 20:33:03 10° SSW visible
5 Apr ? 22:01:21 10° NNE 22:05:28 27° NW 22:09:33 10° W visible
5 Apr ? 23:39:23 10° NNE 23:41:59 14° NNW 23:44:34 10° NW visible
6 Apr ? 01:16:11 10° NNE 01:18:06 12° N 01:20:01 10° NNW visible
6 Apr ? 02:51:05 10° ENE 02:54:20 18° NNE 02:57:35 10° NNW visible
6 Apr ? 21:08:05 10° NNE 21:12:47 46° NW 21:17:25 10° SW visible
6 Apr ? 22:46:13 10° NNE 22:49:40 20° NNW 22:53:06 10° WNW visible
7 Apr ? 00:23:57 10° NNE 00:25:57 12° N 00:27:57 10° NNW visible
7 Apr ? 01:59:39 10° NE 02:02:03 14° NNE 02:04:26 10° NNW visible
7 Apr ? 03:34:33 10° E 03:38:29 24° NE 03:42:25 10° NNW visible
7 Apr ? 20:14:51 10° NNE 20:19:48 86° WNW 20:24:40 10° SSW visible
7 Apr ? 21:52:56 10° NNE 21:57:10 29° NW 22:01:20 10° WSW visible
7 Apr ? 23:31:00 10° NNE 23:33:44 15° NNW 23:36:27 10° NW visible
8 Apr ? 01:08:00 10° NNE 01:09:52 12° N 01:11:43 10° NNW visible
8 Apr ? 02:42:58 10° ENE 02:46:03 17° NNE 02:49:09 10° NNW visible
8 Apr ? 20:59:39 10° NNE 21:04:24 51° WNW 21:09:05 10° SW visible
8 Apr ? 22:37:47 10° NNE 22:41:22 21° NW 22:44:56 10° W visible
9 Apr ? 00:15:35 10° NNE 00:17:41 13° N 00:19:46 10° NW visible
9 Apr ? 01:51:31 10° NE 01:53:46 13° NNE 01:56:01 10° NNW visible
9 Apr ? 03:26:22 10° E 03:30:09 23° NE 03:33:56 10° NNW visible
9 Apr ? 20:06:24 10° NNE 20:11:20 85° ESE 20:16:12 10° SSW visible
9 Apr ? 21:44:28 10° NNE 21:48:47 32° NW 21:53:04 10° WSW visible
9 Apr ? 23:22:33 10° NNE 23:25:25 16° NNW 23:28:16 10° WNW visible
10 Apr ? 00:59:45 10° NNE 01:01:34 12° N 01:03:23 10° NNW visible
10 Apr ? 02:34:48 10° ENE 02:37:44 16° NNE 02:40:40 10° NNW visible
10 Apr ? 20:51:09 10° NNE 20:55:57 56° WNW 21:00:41 10° SW visible
10 Apr ? 22:29:16 10° NNE 22:32:59 22° NW 22:36:41 10° W visible
11 Apr ? 00:07:10 10° NNE 00:09:21 13° NNW 00:11:32 10° NW visible
11 Apr ? 01:43:19 10° NE 01:45:26 13° NNE 01:47:34 10° NNW visible
11 Apr ? 03:18:08 10° E 03:21:46 21° NE 03:25:25 10° NNW visible
11 Apr ? 21:35:56 10° NNE 21:40:21 35° NW 21:44:43 10° WSW visible
11 Apr ? 23:14:02 10° NNE 23:17:03 16° NNW 23:20:01 10° WNW visible
12 Apr ? 00:51:24 10° NNE 00:53:13 12° N 00:55:01 10° NNW visible
12 Apr ? 02:26:35 10° ENE 02:29:21 15° NNE 02:32:08 10° NNW visible
12 Apr ? 20:42:35 10° NNE 20:47:27 63° WNW 20:52:12 10° SW visible
12 Apr ? 22:20:43 10° NNE 22:24:34 24° NW 22:28:22 10° W visible
12 Apr ? 23:58:40 10° NNE 00:00:58 13° NNW 00:03:15 10° NW visible
13 Apr ? 01:35:03 10° NNE 01:37:03 12° N 01:39:04 10° NNW visible
13 Apr ? 03:09:51 10° ENE 03:13:21 20° NNE 03:16:50 10° NNW visible
13 Apr ? 21:27:20 10° NNE 21:31:51 38° NW 21:36:17 10° WSW visible
13 Apr ? 23:05:28 10° NNE 23:08:36 17° NNW 23:11:44 10° WNW visible
